Weather History for KVNC - November, 2012

Change the Weather History Date:

Monday, November 5, 2012

  Actual Average (KSRQ) Record (KSRQ)
Temperature  
Mean Temperature 70 °F 71 °F  
Max Temperature 75 °F 81 °F 91 °F (1959)
Min Temperature 64 °F 62 °F 41 °F (1927)
Degree Days  
Heating Degree Days 0 0  
Month to date heating degree days 0  
Since 1 July heating degree days 3  
Cooling Degree Days 4 7  
Month to date cooling degree days 36  
Year to date cooling degree days 3180  
Growing Degree Days 20 (Base 50)    
Moisture  
Dew Point 65 °F    
Average Humidity 83    
Maximum Humidity 100    
Minimum Humidity 68    
Precipitation  
Precipitation 0.00 in 0.09 in 2.60 in (1998)
Month to date precipitation 0.41  
Year to date precipitation 48.96  
Sea Level Pressure  
Sea Level Pressure 30.00 in    
Wind  
Wind Speed 4 mph (WNW)    
Max Wind Speed 9 mph    
Max Gust Speed -    
Visibility 10 miles    
Events Rain    
T = Trace of Precipitation, MM = Missing Value Source: NWS Daily Summary

Daily Weather History Graph

Daily Weather History Graph

Search for Another Location

Airport or City:

Trip Planner

Search our weather history database for the weather conditions in past years. The results will help you decide how hot, cold, wet, or windy it might be!

Date:

Astronomy

Nov. 05, 2012 Rise Set
Actual Time 6:42 AM EST 5:43 PM EST
Civil Twilight 6:18 AM EST 6:07 PM EST
Nautical Twilight 5:50 AM EST 6:35 PM EST
Astronomical Twilight 5:23 AM EST 7:02 PM EST
Moon 11:18 PM EST (11/5) 12:00 PM EST (11/5)
Length of Visible Light 11h 49m
Length of Day
11h 00m
Waning Gibbous, 63% of the Moon is Illuminated
Nov 5
Waning Gibbous
Nov 6
Last Quarter
Nov 13
New
Nov 20
First Quarter
Nov 28
Full

Hourly Weather History & Observations

Time (EST) Temp. Dew Point Humidity Pressure Visibility Wind Dir Wind Speed Gust Speed Precip Events Conditions
12:15 AM 69.8 °F 66.2 °F 88% 30.03 in 10.0 mi West 4.6 mph - N/A   Clear
12:35 AM 69.8 °F 66.2 °F 88% 30.03 in 10.0 mi WNW 5.8 mph - N/A   Clear
12:55 AM 69.8 °F 66.2 °F 88% 30.02 in 10.0 mi WNW 6.9 mph - N/A   Clear
1:15 AM 69.8 °F 66.2 °F 88% 30.03 in 10.0 mi WNW 5.8 mph - N/A   Clear
1:35 AM 69.8 °F 66.2 °F 88% 30.02 in 10.0 mi WNW 5.8 mph - N/A   Clear
1:55 AM 69.8 °F 66.2 °F 88% 30.02 in 10.0 mi WNW 5.8 mph - N/A   Clear
2:15 AM 69.8 °F 66.2 °F 88% 30.01 in 10.0 mi NW 5.8 mph - N/A   Clear
2:35 AM 69.8 °F 66.2 °F 88% 30.00 in 10.0 mi NW 4.6 mph - N/A   Clear
2:55 AM 68.0 °F 66.2 °F 94% 30.00 in 10.0 mi WNW 3.5 mph - N/A   Clear
3:15 AM 68.0 °F 66.2 °F 94% 30.00 in 10.0 mi NW 5.8 mph - N/A   Clear
3:35 AM 68.0 °F 66.2 °F 94% 30.00 in 10.0 mi West 3.5 mph - N/A   Clear
3:55 AM 69.8 °F 66.2 °F 88% 30.00 in 10.0 mi WNW 6.9 mph - N/A   Clear
4:15 AM 69.8 °F 66.2 °F 88% 30.00 in 10.0 mi WNW 3.5 mph - N/A   Scattered Clouds
4:35 AM 69.8 °F 66.2 °F 88% 30.00 in 10.0 mi NW 3.5 mph - N/A   Scattered Clouds
4:55 AM 71.6 °F 66.2 °F 83% 30.00 in 10.0 mi NW 4.6 mph - N/A   Partly Cloudy
5:15 AM 66.2 °F 64.4 °F 94% 30.01 in 9.0 mi ENE 3.5 mph - N/A   Mostly Cloudy
5:35 AM 64.4 °F 64.4 °F 100% 30.01 in 7.0 mi East 3.5 mph - N/A   Mostly Cloudy
5:55 AM 64.4 °F 64.4 °F 100% 30.01 in 7.0 mi Calm Calm - N/A   Partly Cloudy
6:15 AM 64.4 °F 64.4 °F 100% 30.02 in 8.0 mi Calm Calm - N/A   Clear
6:35 AM 64.4 °F 64.4 °F 100% 30.01 in 8.0 mi Calm Calm - N/A   Clear
6:55 AM 64.4 °F 64.4 °F 100% 30.02 in 7.0 mi Calm Calm - N/A   Clear
7:15 AM 64.4 °F 64.4 °F 100% 30.02 in 5.0 mi Calm Calm - N/A Rain Light Rain
7:35 AM 66.2 °F 64.4 °F 94% 30.02 in 5.0 mi Calm Calm - N/A Rain Light Rain
7:55 AM 66.2 °F 64.4 °F 94% 30.02 in 5.0 mi Calm Calm - N/A Rain Light Rain
8:15 AM 68.0 °F 66.2 °F 94% 30.03 in 8.0 mi Calm Calm - N/A Rain Light Rain
8:35 AM 68.0 °F 66.2 °F 94% 30.03 in 9.0 mi Calm Calm - N/A   Scattered Clouds
8:55 AM 69.8 °F 66.2 °F 88% 30.03 in 9.0 mi Calm Calm - N/A Rain Light Rain
9:15 AM 71.6 °F 68.0 °F 88% 30.03 in 10.0 mi SE 4.6 mph - N/A   Clear
9:35 AM 71.6 °F 68.0 °F 88% 30.03 in 10.0 mi SSE 3.5 mph - N/A   Clear
9:55 AM 73.4 °F 68.0 °F 83% 30.03 in 10.0 mi Calm Calm - N/A   Clear
10:15 AM 73.4 °F 68.0 °F 83% 30.03 in 10.0 mi Calm Calm - N/A   Scattered Clouds
10:35 AM 75.2 °F 66.2 °F 73% 30.03 in 10.0 mi WNW 3.5 mph - N/A   Scattered Clouds
10:55 AM 73.4 °F 66.2 °F 78% 30.03 in 10.0 mi WNW 5.8 mph - N/A   Scattered Clouds
11:15 AM 75.2 °F 66.2 °F 73% 30.02 in 10.0 mi West 5.8 mph - N/A   Partly Cloudy
11:35 AM 75.2 °F 66.2 °F 73% 30.02 in 10.0 mi WNW 5.8 mph - N/A   Clear
11:55 AM 75.2 °F 64.4 °F 69% 30.00 in 10.0 mi WNW 5.8 mph - N/A   Clear
12:15 PM 75.2 °F 66.2 °F 73% 30.00 in 10.0 mi WNW 5.8 mph - N/A   Clear
12:35 PM 75.2 °F 66.2 °F 73% 29.99 in 10.0 mi WNW 6.9 mph - N/A   Clear
12:55 PM 75.2 °F 66.2 °F 73% 29.99 in 10.0 mi West 9.2 mph - N/A   Clear
1:15 PM 75.2 °F 66.2 °F 73% 29.98 in 10.0 mi WNW 8.1 mph - N/A   Clear
1:35 PM 75.2 °F 66.2 °F 73% 29.98 in 10.0 mi WNW 8.1 mph - N/A   Clear
1:55 PM 73.4 °F 66.2 °F 78% 29.96 in 10.0 mi WNW 6.9 mph - N/A   Clear
2:15 PM 73.4 °F 66.2 °F 78% 29.96 in 10.0 mi WNW 8.1 mph - N/A   Clear
2:35 PM 73.4 °F 66.2 °F 78% 29.96 in 10.0 mi WNW 6.9 mph - N/A   Clear
2:55 PM 73.4 °F 66.2 °F 78% 29.96 in 10.0 mi NW 6.9 mph - N/A   Clear
3:15 PM 73.4 °F 64.4 °F 73% 29.95 in 10.0 mi NW 5.8 mph - N/A   Clear
3:35 PM 73.4 °F 64.4 °F 73% 29.95 in 10.0 mi WNW 6.9 mph - N/A   Clear
3:55 PM 73.4 °F 66.2 °F 78% 29.96 in 9.0 mi NW 9.2 mph - N/A   Clear
4:15 PM 71.6 °F 64.4 °F 78% 29.95 in 10.0 mi NW 5.8 mph - N/A   Clear
4:35 PM 71.6 °F 64.4 °F 78% 29.95 in 10.0 mi WNW 4.6 mph - N/A   Clear
4:55 PM 71.6 °F 64.4 °F 78% 29.96 in 10.0 mi WNW 5.8 mph - N/A   Clear
5:15 PM 71.6 °F 64.4 °F 78% 29.97 in 10.0 mi WNW 8.1 mph - N/A   Clear
5:35 PM 71.6 °F 64.4 °F 78% 29.96 in 10.0 mi WNW 5.8 mph - N/A   Clear
5:55 PM 69.8 °F 64.4 °F 83% 29.97 in 10.0 mi WNW 6.9 mph - N/A   Clear
6:15 PM 69.8 °F 62.6 °F 78% 29.97 in 10.0 mi NW 6.9 mph - N/A   Clear
6:35 PM 69.8 °F 62.6 °F 78% 29.97 in 10.0 mi NW 4.6 mph - N/A   Clear
6:55 PM 69.8 °F 60.8 °F 73% 29.98 in 10.0 mi NW 3.5 mph - N/A   Clear
7:15 PM 71.6 °F 60.8 °F 69% 29.99 in 10.0 mi NW 4.6 mph - N/A   Clear
7:35 PM 69.8 °F 62.6 °F 78% 29.98 in 10.0 mi Calm Calm - N/A   Clear
7:55 PM 69.8 °F 60.8 °F 73% 29.98 in 10.0 mi NNW 3.5 mph - N/A   Scattered Clouds
8:15 PM 69.8 °F 59.0 °F 68% 29.99 in 10.0 mi Calm Calm - N/A   Partly Cloudy
8:35 PM 68.0 °F 60.8 °F 78% 29.99 in 10.0 mi Calm Calm - N/A   Scattered Clouds
8:55 PM 69.8 °F 60.8 °F 73% 29.99 in 10.0 mi Calm Calm - N/A   Overcast
9:15 PM 69.8 °F 60.8 °F 73% 29.99 in 10.0 mi Calm Calm - N/A   Mostly Cloudy
9:35 PM 69.8 °F 60.8 °F 73% 29.99 in 10.0 mi Calm Calm - N/A   Mostly Cloudy
9:55 PM 68.0 °F 62.6 °F 83% 29.99 in 10.0 mi NNW 3.5 mph - N/A   Mostly Cloudy
10:15 PM 66.2 °F 62.6 °F 88% 29.99 in 10.0 mi Calm Calm - N/A   Overcast
10:35 PM 68.0 °F 62.6 °F 83% 29.99 in 10.0 mi Calm Calm - N/A   Mostly Cloudy
10:55 PM 66.2 °F 62.6 °F 88% 29.98 in 10.0 mi Calm Calm - N/A   Overcast
11:15 PM 66.2 °F 64.4 °F 94% 29.97 in 10.0 mi Calm Calm - N/A   Mostly Cloudy
11:35 PM 66.2 °F 62.6 °F 88% 29.96 in 10.0 mi North 3.5 mph - N/A   Overcast
11:55 PM 68.0 °F 62.6 °F 83% 29.96 in 10.0 mi Calm Calm - N/A   Mostly Cloudy